Campbell Airport

Jump to: basic info | weather | frequencies | runways | comments

Related pages: nearby airports | nearby navaids | notams | map

Basic information (top)

Codes: KC81 C81
Location: lon 42.324600, lat -88.074097, elev 788 ft / 240 m msl
Status: small_airport
Scheduled airline service: no
Links: Wikipedia Mobile

Weather (top)

Current conditions for Waukegan Regional Airport 11nm (20km) ENE (rec'd 2014/10/22 12:55Z):

KUGN 221255Z 31003KT 8SM SCT031 02/01 A3034 RMK AO2 SLP284 T00220011

Airport forecast for Kenosha Regional Airport 18nm (32km) NNE (rec'd 2014/10/22 12:24Z):

TAF KENW 221122Z 2212/2312 VRB03KT 1 1/2SM BR SCT025 
      TEMPO 2212/2213 3SM BR SCT025 
     FM221500 13007KT P6SM FEW030 
     FM230100 15004KT P6SM FEW250

Frequencies (top)

Verify before use: may be inaccurate or out of date.

A/D: 120.55 MHz (CHICAGO APP/DEP)
UNIC: 122.7 MHz (CTAF/UNICOM)

Runways (top)

06/24: 3,573 x 40 ft (1,089 x 12 m) — other (COP) — not lighted — threshold 24 displaced 301 ft (92 m)

09/27: 3,270 x 40 ft (997 x 12 m) — paved — lighted

Latest comments (top)

My aviation birthplace.: I did my Private Pilot training here. [read]

More... (top)

See also NOTAMs and nearby airports and navaids, or visit the Campbell Airport page at the main OurAirports website..